• In United Kingdom
  • List of Countries
  • For 7 days
  • Water Temperature
  • Satellite Maps
  • Weather Map
  • Weather Widgets
  • user-avatar
    Login

    Hourly Weather Cyklady

    Today, 16 January, Tuesday

    Time Temperature Precipitation Wind Pressure Humidity
    00:00 +5°C° 0.3 mm 2 mps 687 mmHg 95%
    01:00 +5°C° 0 mm 2 mps 687 mmHg 95%
    02:00 +5°C° 0.1 mm 2 mps 687 mmHg 95%
    03:00 +5°C° 0.1 mm 2 mps 687 mmHg 95%
    04:00 +4°C° 0.1 mm 2 mps 686 mmHg 95%
    05:00 +5°C° 0.2 mm 2 mps 686 mmHg 95%
    06:00 +4°C° 0.2 mm 3 mps 686 mmHg 95%
    07:00 +4°C° 0 mm 3 mps 686 mmHg 95%
    08:00 +5°C° 0.4 mm 3 mps 686 mmHg 92%
    09:00 +5°C° 0.4 mm 3 mps 686 mmHg 89%
    10:00 +7°C° 0.4 mm 3 mps 686 mmHg 86%
    11:00 +6°C° 0.5 mm 4 mps 685 mmHg 83%
    12:00 +7°C° 0.5 mm 4 mps 685 mmHg 81%
    13:00 +7°C° 0.5 mm 4 mps 685 mmHg 78%
    14:00 +6°C° 0.3 mm 4 mps 685 mmHg 80%
    15:00 +6°C° 0.3 mm 4 mps 684 mmHg 82%
    16:00 +5°C° 0.3 mm 4 mps 684 mmHg 84%
    17:00 +5°C° 0.2 mm 4 mps 684 mmHg 87%
    18:00 +4°C° 0.2 mm 4 mps 683 mmHg 89%
    19:00 +4°C° 0.2 mm 4 mps 683 mmHg 91%
    20:00 +4°C° 0.2 mm 4 mps 683 mmHg 92%
    21:00 +4°C° 0.2 mm 4 mps 683 mmHg 92%
    22:00 +4°C° 0.2 mm 4 mps 683 mmHg 92%
    23:00 +4°C° 0.1 mm 4 mps 683 mmHg 92%

    Tomorrow, 17 January, Wednesday

    Time Temperature Precipitation Wind Pressure Humidity
    00:00 +4°C° 0.1 mm 4 mps 683 mmHg 93%
    01:00 +4°C° 0.1 mm 4 mps 683 mmHg 93%
    02:00 +4°C° 0.1 mm 4 mps 682 mmHg 94%
    03:00 +4°C° 0.1 mm 3 mps 682 mmHg 94%
    04:00 +4°C° 0.1 mm 3 mps 682 mmHg 95%
    05:00 +4°C° 0.1 mm 3 mps 681 mmHg 95%
    06:00 +4°C° 0.1 mm 3 mps 681 mmHg 95%
    07:00 +5°C° 0.1 mm 3 mps 681 mmHg 95%
    08:00 +5°C° 0.1 mm 4 mps 681 mmHg 93%
    09:00 +6°C° 0.1 mm 4 mps 681 mmHg 90%
    10:00 +7°C° 0.1 mm 4 mps 681 mmHg 88%
    11:00 +7°C° 0.2 mm 4 mps 680 mmHg 89%
    12:00 +7°C° 0.2 mm 5 mps 680 mmHg 89%
    13:00 +7°C° 0.2 mm 5 mps 679 mmHg 89%
    14:00 +7°C° 0.1 mm 5 mps 679 mmHg 90%
    15:00 +7°C° 0.1 mm 5 mps 679 mmHg 90%
    16:00 +7°C° 0.1 mm 6 mps 678 mmHg 91%
    17:00 +7°C° 0.1 mm 6 mps 678 mmHg 91%
    18:00 +6°C° 0.1 mm 5 mps 678 mmHg 91%
    19:00 +6°C° 0.1 mm 5 mps 677 mmHg 92%
    20:00 +5°C° 0.3 mm 6 mps 677 mmHg 91%
    21:00 +5°C° 0.3 mm 7 mps 677 mmHg 91%
    22:00 +5°C° 0.3 mm 7 mps 677 mmHg 90%
    23:00 +5°C° 0.5 mm 8 mps 677 mmHg 89%

    Day after tomorrow, 18 January, Thursday

    Time Temperature Precipitation Wind Pressure Humidity
    00:00 +3°C° 0.5 mm 9 mps 677 mmHg 87%
    01:00 +3°C° 0.5 mm 10 mps 677 mmHg 85%
    02:00 +2°C° 0.1 mm 10 mps 677 mmHg 82%
    03:00 +1°C° 0.1 mm 10 mps 677 mmHg 78%
    04:00 0°C° 0.1 mm 10 mps 677 mmHg 75%
    05:00 0°C° 0 mm 10 mps 678 mmHg 74%
    06:00 -2°C° 0 mm 10 mps 679 mmHg 73%
    07:00 -2°C° 0 mm 10 mps 680 mmHg 73%
    08:00 -1°C° 0 mm 9 mps 681 mmHg 61%
    09:00 0°C° 0 mm 9 mps 682 mmHg 50%
    10:00 +1°C° 0 mm 8 mps 684 mmHg 38%
    11:00 +1°C° 0 mm 8 mps 684 mmHg 37%
    12:00 +2°C° 0 mm 8 mps 684 mmHg 35%
    13:00 +3°C° 0 mm 7 mps 684 mmHg 34%
    14:00 +3°C° 0 mm 6 mps 685 mmHg 39%
    15:00 +2°C° 0 mm 5 mps 685 mmHg 43%
    16:00 +1°C° 0 mm 4 mps 685 mmHg 48%
    17:00 0°C° 0 mm 4 mps 685 mmHg 51%
    18:00 0°C° 0 mm 3 mps 685 mmHg 53%
    19:00 -1°C° 0 mm 3 mps 686 mmHg 56%
    20:00 -1°C° 0 mm 2 mps 686 mmHg 56%
    21:00 -1°C° 0 mm 2 mps 686 mmHg 57%
    22:00 -1°C° 0 mm 2 mps 686 mmHg 57%
    23:00 -1°C° 0 mm 2 mps 686 mmHg 61%

    19 January, Friday

    Time Temperature Precipitation Wind Pressure Humidity
    00:00 -1°C° 0 mm 2 mps 686 mmHg 64%
    01:00 -1°C° 0 mm 2 mps 685 mmHg 67%
    02:00 -1°C° 0 mm 2 mps 685 mmHg 72%
    03:00 -1°C° 0 mm 2 mps 685 mmHg 77%
    04:00 -1°C° 0 mm 3 mps 685 mmHg 81%
    05:00 -1°C° 0 mm 2 mps 685 mmHg 81%
    06:00 -1°C° 0 mm 2 mps 685 mmHg 82%
    07:00 -1°C° 0 mm 2 mps 684 mmHg 82%
    08:00 +1°C° 0 mm 3 mps 685 mmHg 75%
    09:00 +3°C° 0 mm 3 mps 685 mmHg 68%
    10:00 +5°C° 0 mm 3 mps 685 mmHg 61%
    11:00 +7°C° 0 mm 3 mps 685 mmHg 64%
    12:00 +7°C° 0 mm 3 mps 685 mmHg 66%
    13:00 +8°C° 0 mm 3 mps 684 mmHg 69%
    14:00 +7°C° 0.1 mm 3 mps 684 mmHg 74%
    15:00 +5°C° 0.1 mm 3 mps 684 mmHg 78%
    16:00 +6°C° 0.1 mm 2 mps 684 mmHg 83%
    17:00 +5°C° 0.1 mm 2 mps 684 mmHg 86%
    18:00 +4°C° 0.1 mm 2 mps 684 mmHg 90%
    19:00 +4°C° 0.1 mm 2 mps 684 mmHg 93%
    20:00 +4°C° 0.1 mm 2 mps 684 mmHg 93%
    21:00 +4°C° 0.1 mm 2 mps 684 mmHg 94%
    22:00 +4°C° 0.1 mm 3 mps 683 mmHg 94%
    23:00 +4°C° 0.1 mm 3 mps 683 mmHg 94%

    20 January, Saturday

    Time Temperature Precipitation Wind Pressure Humidity
    00:00 +4°C° 0.1 mm 3 mps 683 mmHg 94%
    01:00 +4°C° 0.1 mm 3 mps 683 mmHg 94%
    02:00 +4°C° 0.1 mm 3 mps 683 mmHg 95%
    03:00 +4°C° 0.1 mm 3 mps 682 mmHg 95%
    04:00 +4°C° 0.1 mm 3 mps 682 mmHg 95%
    05:00 +4°C° 0.1 mm 3 mps 682 mmHg 95%
    06:00 +4°C° 0.1 mm 3 mps 682 mmHg 95%
    07:00 +4°C° 0.1 mm 3 mps 682 mmHg 95%
    08:00 +5°C° 0.1 mm 4 mps 682 mmHg 92%
    09:00 +6°C° 0.1 mm 4 mps 682 mmHg 88%
    10:00 +6°C° 0.1 mm 4 mps 681 mmHg 85%
    11:00 +6°C° 0.1 mm 4 mps 681 mmHg 84%
    12:00 +7°C° 0.1 mm 5 mps 680 mmHg 83%
    13:00 +7°C° 0.1 mm 5 mps 680 mmHg 82%
    14:00 +6°C° 0.1 mm 5 mps 679 mmHg 83%
    15:00 +6°C° 0.1 mm 4 mps 679 mmHg 83%
    16:00 +6°C° 0.1 mm 4 mps 678 mmHg 83%
    17:00 +5°C° 0 mm 4 mps 678 mmHg 86%
    18:00 +4°C° 0 mm 4 mps 677 mmHg 89%
    19:00 +2°C° 0 mm 5 mps 677 mmHg 92%
    20:00 +2°C° 0 mm 5 mps 676 mmHg 92%
    21:00 +2°C° 0 mm 5 mps 676 mmHg 92%
    22:00 +2°C° 0 mm 5 mps 675 mmHg 92%
    23:00 +2°C° 0.1 mm 5 mps 674 mmHg 92%

    21 January, Sunday

    Time Temperature Precipitation Wind Pressure Humidity
    00:00 +2°C° 0.1 mm 5 mps 673 mmHg 91%
    01:00 +2°C° 0.1 mm 6 mps 672 mmHg 91%
    02:00 +2°C° 0.7 mm 6 mps 670 mmHg 91%
    03:00 +2°C° 0.7 mm 6 mps 669 mmHg 90%
    04:00 +2°C° 0.7 mm 6 mps 667 mmHg 90%
    05:00 +2°C° 1 mm 5 mps 667 mmHg 91%
    06:00 +2°C° 1 mm 5 mps 666 mmHg 91%
    07:00 +3°C° 1 mm 4 mps 666 mmHg 92%
    08:00 +3°C° 0.7 mm 5 mps 666 mmHg 92%
    09:00 +3°C° 0.7 mm 6 mps 666 mmHg 91%
    10:00 +4°C° 0.7 mm 7 mps 666 mmHg 91%
    11:00 +3°C° 0.8 mm 7 mps 666 mmHg 89%
    12:00 +2°C° 0.8 mm 8 mps 667 mmHg 87%
    13:00 +1°C° 0.8 mm 8 mps 667 mmHg 85%
    14:00 +1°C° 0.4 mm 8 mps 667 mmHg 85%
    15:00 +2°C° 0.4 mm 7 mps 667 mmHg 84%
    16:00 +2°C° 0.4 mm 7 mps 668 mmHg 84%
    17:00 0°C° 0.6 mm 7 mps 668 mmHg 85%
    18:00 +1°C° 0.6 mm 6 mps 668 mmHg 86%
    19:00 -1°C° 0.6 mm 6 mps 669 mmHg 87%
    20:00 -1°C° 0.4 mm 6 mps 669 mmHg 88%
    21:00 0°C° 0.4 mm 5 mps 670 mmHg 88%
    22:00 -1°C° 0.4 mm 5 mps 670 mmHg 89%
    23:00 -1°C° 0.5 mm 5 mps 670 mmHg 89%
    Show more